[Iaude] MPEC X176: 2023 XV5 [a=1.27,e=0.17,i=11.3,H=24.5]

mpec at marsden.cfa.harvard.edu mpec at marsden.cfa.harvard.edu
Sun Dec 10 17:01:51 EST 2023


M.P.E.C. 2023-X176                            Issued 2023 December 10, 21:59 UT

     The Minor Planet Electronic Circulars contain information on unusual
         minor planets, routine data on comets and natural satellites,
         and occasional editorial announcements.  They are published
    on behalf of Division F of the International Astronomical Union by the
          Minor Planet Center, Smithsonian Astrophysical Observatory,
                          Cambridge, MA 02138, U.S.A.
			  
             Prepared using the Tamkin Foundation Computer Network

                              MPC at CFA.HARVARD.EDU
            URL https://www.minorplanetcenter.net/    ISSN 1523-6714

                                    2023 XV5                                    


Observations:
     K23X05V*1C2023 12 07.32568005 20 39.944-01 52 28.09         21.05GVEX176G96
     K23X05V 1C2023 12 07.33082805 20 39.656-01 52 02.50         20.63GVEX176G96
     K23X05V 1C2023 12 07.33598205 20 39.347-01 51 36.29         20.76GVEX176G96
     K23X05V KC2023 12 07.42019105 20 34.598-01 44 35.30         20.28GVEX176I52
     K23X05V KC2023 12 07.42182005 20 34.537-01 44 27.06         21.16GVEX176I52
     K23X05V KC2023 12 07.42506805 20 34.368-01 44 09.92         20.39GVEX176I52
     K23X05V pC2023 12 07.89275305 20 25.85 -01 04 41.1          20.7 GVEX176L01
     K23X05V KC2023 12 07.89443505 20 25.78 -01 04 32.7          20.7 GVEX176L01
     K23X05V KC2023 12 07.90315905 20 25.28 -01 03 48.0          20.8 GVEX176L01
     K23X05V |C2023 12 08.21421005 20 13.980-00 34 55.80         20.6 VuEX176807
     K23X05V |C2023 12 08.22078005 20 13.560-00 34 20.90         20.6 VuEX176807
     K23X05V |C2023 12 08.22735405 20 13.160-00 33 46.20         20.9 VuEX176807
     K23X05V KC2023 12 08.27868305 20 13.06 -00 30 46.9          20.0 GXEX176858
     K23X05V KC2023 12 08.28576105 20 12.62 -00 30 09.7          19.9 GXEX176858
     K23X05V KC2023 12 08.29252205 20 12.21 -00 29 33.8          20.3 GXEX176858
     K23X05V !C2023 12 09.31137 05 19 39.99 +01 03 39.6          20.5 RVEX176673
     K23X05V !C2023 12 09.32287 05 19 39.24 +01 04 44.9                VEX176673
     K23X05V KC2023 12 10.25982305 19 07.74 +02 35 55.0          20.6 GXEX176858
     K23X05V KC2023 12 10.26683905 19 07.27 +02 36 37.4          19.9 GXEX176858
     K23X05V KC2023 12 10.27379105 19 06.80 +02 37 19.0          20.5 GXEX176858

Observer details:
673 Table Mountain Observatory, Wrightwood.  Observer J. Pittichova.  1.0-m
    f/15 reflector + CCD.
807 Cerro Tololo Observatory, La Serena.  Observers T. Linder, R. Holmes, L.
    Horn.  0.61-m f/11 Ritchey-Chretien + CCD.
858 Tebbutt Observatory, Edgewood.  Observer F. B. Zoltowski.  0.51-m f/8.1
    Schmidt-Cassegrain + CCD.
G96 Mt. Lemmon Survey.  Observer J. K. Hogan.  Measurers E. C. Beshore, D.
    Fay, J. B. Fazekas, D. C. Fuls, A. R. Gibbs, A. D. Grauer, H. Groeller, J.
    K. Hogan, R. A. Kowalski, S. M. Larson, G. J. Leonard, D. Rankin, R. L.
    Seaman, F. C. Shelly, K. W. Wierzchos.  1.5-m reflector + 10K CCD.
I52 Steward Observatory, Mt. Lemmon Station.  Observer K. W. Wierzchos.
    Measurers E. C. Beshore, D. Fay, J. B. Fazekas, D. C. Fuls, A. R. Gibbs,
    A. D. Grauer, H. Groeller, J. K. Hogan, R. A. Kowalski, S. M. Larson, G.
    J. Leonard, D. Rankin, R. L. Seaman, F. C. Shelly, K. W. Wierzchos.  1.0-m
    prime focus + CCD.
L01 Visnjan Observatory, Tican.  Observers K. Korlevic, I. Lyon.  Measurer K.
    Korlevic.  1.0-m f/2.9 reflector + CCD.

Orbital elements:
2023 XV5                                                 Earth MOID = 0.0741 AU
Epoch 2023 Sept. 13.0 TT = JDT 2460200.5                Veres                   
M 274.52682              (2000.0)            P               Q                  
n   0.69196067     Peri.   25.38017     -0.36712179     -0.90938722             
a   1.2659458      Node    86.66951     +0.81653817     -0.41575878             
e   0.1729604      Incl.   11.29569     +0.44551881     +0.01263034             
P   1.42           H   24.57          G   0.15           U   8                  
Residuals in seconds of arc
231207 G96  0.1-  0.1-    231207 L01  1.0+  0.3+    231208 858  0.1-  0.4+
231207 G96  0.1+  0.2-    231207 L01  0.3+  0.1-    231209 673  0.3-  0.6+
231207 G96  0.1-  0.3+    231208 807  0.1+  0.2-    231209 673  0.4-  0.7+
231207 I52  0.4-  0.3-    231208 807  0.1-  0.0     231210 858  0.3-  0.1-
231207 I52  0.1-  0.3-    231208 807  0.0   0.1-    231210 858  0.4-  0.1+
231207 I52  0.0   0.5+    231208 858  0.1+  0.8+    231210 858  0.4-  0.1-
231207 L01  0.7+  0.6+    231208 858  0.1-  0.4+

Ephemeris:
2023 XV5                 a,e,i = 1.27, 0.17, 11                  q = 1.0470
Date    TT    R. A. (2000) Decl.     Delta      r    Elong.  Phase     V
2023 11 10    05 17 18.5 -17 30 35   0.2029  1.1350   131.4    40.9    23.0
...
2023 11 25    05 22 58.9 -13 11 55   0.1437  1.1020   140.6    34.7    22.0
...
2023 12 03    05 22 15.1 -07 02 46   0.1162  1.0869   148.7    28.1    21.3
...
2023 12 09    05 19 49.6 +00 35 16   0.09870 1.0768   157.4    20.6    20.7
2023 12 10    05 19 15.8 +02 10 51   0.09614 1.0753   159.1    19.1    20.6
2023 12 11    05 18 39.3 +03 52 27   0.09370 1.0738   160.8    17.5    20.5
...
2023 12 17    05 14 11.0 +16 10 20   0.08218 1.0655   171.2     8.1    19.8
...
2023 12 25    05 06 42.6 +36 42 08   0.07708 1.0566   160.8    17.8    20.1
...
2024 01 09    04 54 20.8 +68 30 31   0.09789 1.0476   128.9    47.0    21.4

M. P. C. Staff               (C) Copyright 2023 MPC           M.P.E.C. 2023-X176





More information about the Iaude mailing list